Regional Weather Roundup
Issued by NWS

Home | Current Version | Previous Version | Text Only | Print | Product List | Glossary Off
Versions: 1 2 3 4 5 6 7 8 9 10 11 12 13 14 15 16 17 18 19 20 21 22 23 24 25 26 27 28 29 30 31 32 33 34 35 36 37 38 39 40 41 42 43 44 45 46 47 48

000
ASUS45 KCYS 301310
RWRWY

WYOMING REGIONAL WEATHER ROUNDUP
NATIONAL WEATHER SERVICE CHEYENNE WY
700 AM MDT TUE JUN 30 2015

NOTE:  "FAIR" INDICATES FEW OR NO CLOUDS BELOW 12,000 FEET
WITH NO SIGNIFICANT WEATHER AND/OR OBSTRUCTIONS TO VISIBILITY.

WYZ001-301400-
YELLOWSTONE NATIONAL PARK

CITY           SKY/WX    TMP DP  RH WIND       PRES   REMARKS
LK YELLOWSTONE   N/A     56  50  80 CALM      30.37S
W YELLOWSTONE  NOT AVBL

$$
WYZ002>013-054>058-071-098>099-301400-
NORTHERN WYOMING

CITY           SKY/WX    TMP DP  RH WIND       PRES   REMARKS
JACKSON        FAIR      55  52  88 N5        30.29S
CODY           FAIR      72  54  53 N7        30.10S
GREYBULL       FAIR      72  52  49 E6        30.03S
WORLAND        FAIR      75  53  46 E8        30.04F
SHERIDAN       FAIR      66  56  70 CALM      30.01R
BUFFALO        FAIR      67  53  61 NW5       30.08R
GILLETTE       FAIR      67  57  70 S3        30.03R
HULETT         FAIR      72  55  56 N3        30.03R
NEWCASTLE      FAIR      64  55  72 E3        30.05F

$$
WYZ014>020-022>026-101>103-301400-
CENTRAL WYOMING

CITY           SKY/WX    TMP DP  RH WIND       PRES   REMARKS
BIG PINEY      FAIR      61  48  62 NW10      30.33R
PINEDALE       FAIR      59  46  63 W6        30.32S
DUBOIS         FAIR      54  46  76 W13       30.31S
LANDER         FAIR      66  50  56 VRB3      30.16F
RIVERTON       FAIR      69  49  48 W6        30.17R
CASPER         FAIR      64  47  53 W3        30.14S
DOUGLAS        FAIR      60  54  80 SE3       30.13S

$$
WYZ021-027>030-104>119-301400-
SOUTHERN WYOMING

CITY           SKY/WX    TMP DP  RH WIND       PRES   REMARKS
EVANSTON       FAIR      64  45  49 W3        30.33R
KEMMERER       FAIR      61  45  55 N7        30.33S
FORT BRIDGER   SUNNY     70  46  43 CALM      30.35R
ROCK SPRINGS   FAIR      65  41  41 E5        30.29R
DIXON          FAIR      59  42  52 E3        30.31R
RAWLINS        FAIR      62  46  55 SE3       30.30R
SARATOGA       FAIR      63  45  51 S6        30.32R
LARAMIE        FAIR      53  46  77 S6        30.32S
CHEYENNE       FAIR      62  47  57 W10       30.22S
TORRINGTON     FAIR      61  55  81 NW3       30.08R
PINE BLUFFS    FAIR      57  52  82 CALM      30.17R

$$


USA.gov is the U.S. government's official web portal to all federal, state and local government web resources and services.